Shirley, NY

6:40 PM EDT on May 23, 2018 (GMT -0400)
Brookhaven

Weather History for KHWV - March, 2014

Change the Weather History Date:

Tuesday, March 18, 2014

  Actual Average (KISP) Record (KISP)
Temperature  
Mean Temperature 30 °F -  
Max Temperature 43 °F 44 °F 77 °F (2011)
Min Temperature 18 °F 29 °F 0 °F (1967)
Degree Days  
Heating Degree Days 36    
Moisture  
Dew Point 13 °F    
Average Humidity 52    
Maximum Humidity 75    
Minimum Humidity 19    
Precipitation  
Precipitation 0.00 in - - ()
Sea Level Pressure  
Sea Level Pressure 30.26 in    
Wind  
Wind Speed 3 mph (ENE)    
Max Wind Speed 10 mph    
Max Gust Speed 18 mph    
Visibility 10 miles    
Events      
Averages and records for this station are not official NWS values.
T = Trace of Precipitation, MM = Missing Value Source: NWS Daily Summary

Daily Weather History Graph

Daily Weather History Graph

Search for Another Location

Airport or City:

Astronomy

Mar. 18, 2014 Rise Set
Actual Time 6:58 AM EDT 7:01 PM EDT
Civil Twilight 6:30 AM EDT 7:28 PM EDT
Nautical Twilight 5:58 AM EDT 8:00 PM EDT
Astronomical Twilight 5:26 AM EDT 8:33 PM EDT
Moon 9:16 PM EDT (3/18) 7:45 AM EDT (3/18)
Length of Visible Light 12h 57m
Length of Day
12h 03m
Waning Gibbous, 96% of the Moon is Illuminated
Mar 18
Waning Gibbous
Mar 23
Last Quarter
Mar 30
New
Apr 7
First Quarter
Apr 15
Full

Hourly Weather History & Observations

Time (EDT) Temp. Windchill Dew Point Humidity Pressure Visibility Wind Dir Wind Speed Gust Speed Precip Events Conditions
12:56 AM 21.9 °F 15.7 °F 6.1 °F 51% 30.15 in 10.0 mi North 4.6 mph - N/A   Clear
1:56 AM 21.0 °F - 6.1 °F 53% 30.16 in 10.0 mi Calm Calm - N/A   Clear
2:56 AM 21.9 °F 17.2 °F 6.1 °F 51% 30.17 in 10.0 mi NNE 3.5 mph - N/A   Clear
3:56 AM 19.9 °F - 8.1 °F 60% 30.17 in 10.0 mi Calm Calm - N/A   Clear
4:56 AM 19.0 °F - 8.1 °F 62% 30.18 in 10.0 mi Calm Calm - N/A   Clear
5:56 AM 18.0 °F - 8.1 °F 65% 30.20 in 10.0 mi Calm Calm - N/A   Clear
6:56 AM 21.0 °F - 12.0 °F 68% 30.21 in 10.0 mi Calm Calm - N/A   Clear
7:56 AM 24.1 °F - 15.1 °F 69% 30.28 in 10.0 mi Calm Calm - N/A   Clear
8:56 AM 30.0 °F 24.1 °F 12.9 °F 49% 30.30 in 10.0 mi Variable 5.8 mph - N/A   Clear
9:56 AM 32.0 °F 24.8 °F 7.0 °F 35% 30.27 in 10.0 mi ENE 8.1 mph - N/A   Clear
10:56 AM 35.1 °F 27.9 °F 5.0 °F 28% 30.28 in 10.0 mi NE 9.2 mph - N/A   Clear
11:56 AM 37.0 °F 30.4 °F 1.9 °F 23% 30.29 in 10.0 mi East 9.2 mph - N/A   Clear
12:56 PM 37.9 °F 31.5 °F -0.9 °F 19% 30.29 in 10.0 mi East 9.2 mph 18.4 mph N/A   Clear
1:56 PM 39.9 °F 35.8 °F 9.0 °F 28% 30.29 in 10.0 mi Variable 5.8 mph - N/A   Clear
2:56 PM 41.0 °F 37.1 °F 9.0 °F 27% 30.29 in 10.0 mi Variable 5.8 mph - N/A   Clear
3:56 PM 37.9 °F 30.9 °F 21.0 °F 51% 30.30 in 10.0 mi SE 10.4 mph - N/A   Clear
4:56 PM 37.9 °F 32.1 °F 21.9 °F 53% 30.28 in 10.0 mi ESE 8.1 mph - N/A   Clear
5:56 PM 37.9 °F 35.5 °F 21.9 °F 53% 30.30 in 10.0 mi Variable 3.5 mph - N/A   Clear
6:56 PM 35.1 °F 32.2 °F 21.9 °F 59% 30.30 in 10.0 mi East 3.5 mph - N/A   Clear
7:56 PM 32.0 °F 28.7 °F 21.9 °F 66% 30.30 in 10.0 mi Variable 3.5 mph - N/A   Clear
8:56 PM 30.0 °F - 21.0 °F 69% 30.32 in 10.0 mi Calm Calm - N/A   Clear
9:56 PM 28.9 °F - 19.9 °F 69% 30.32 in 10.0 mi Calm Calm - N/A   Clear
10:56 PM 27.0 °F - 19.0 °F 72% 30.31 in 10.0 mi Calm Calm - N/A   Clear
11:56 PM 27.0 °F - 19.9 °F 75% 30.32 in 10.0 mi Calm Calm - N/A   Clear